METEOR 2-11 DEB, 40709

Orbit data source: Space-Track

METEOR 2-11 DEB, 40709 is space debris in LEO originally from a launch on Thu, 05 Jul 1984 UTC launched from the Plesetsk Missile And Space Complex (PKMTR). Debris objects in space refer to the collection of defunct objects orbiting the Earth. Examples of debris include non-operational satellites, rocket bodies, and fragments generated from explosions, collisions, or faulty payload assembly.

Loading next visibility...
Identifier
40709, 1984-072L
Orbit
LEO
Last TLE update
6 months ago
Origin
Manufacturer
Unknown
Mission
Spacecraft
Bus & Motor
Unknown
Mass
Unknown
Launch date (UTC)
1984-07-05 (41 years ago)
Launch vehicle
Unknown
Launch site
Plesetsk Missile And Space Complex (PKMTR)
Object type
Payload
Rocket body
Debris
Shape & HBR
Unknown
Radar Cross Section
Small (<0.1 m²)

Expand to show TLE details & history

TLE from 6 months ago
0 METEOR 2-11 DEB
1 40709U 84072L   25001.48204260  .00007336  00000-0  51786-2 0  9993
2 40709  82.5127  73.9505 0008602 342.6776  17.4097 13.97756433769498
Epoch: 2025-01-01T11:34Z
TLE epoch observation values (Epoch: 2025-01-01T11:34:08.48Z)
Latitude
-0.00002°
Longitude
159.04047°
Altitude
898.519 km
Speed
7.406 km/s
True Right ascension
04h 55m 48s
True Declination
0° 00' 00"
Sunlit
Object was in full shadow at epoch
Visualization orbit readout
Latitude
56.83005°
Longitude
21.92847°
Altitude
905.06 km
Speed
7.403 km/s
Apparent Right ascension
01h 13m 02s
Apparent Declination
29° 48' 31"
Sunlit
Object is in daylight
Visualization observer readout
Local Sidereal Time
16:47:52
Azimuth
44.534° NE
Elevation
-4.298°
Doppler factor
1
Orbital elements
Apogee altitude
904.969 km
Perigee altitude
892.45 km
Semi-major axis
7,276.846 km
Eccentricity
0.00086
Inclination
82.5127°
RAAN
73.9505°
Arg. of periapsis
342.6776°
True anomaly
Unknown
Mean anomaly
17.4097°
Eccentric anomaly
Unknown
Mean motion
3.49646 °/min
Orbital period
102.96 mins
BSTAR
0.0051786
Loading maneuver chart data...
Loading SW <> Apogee altitude chart data...
Loading historical data...
Loading historical data...
Loading historical data...
Loading historical data...
Loading historical data...
Loading historical data...
Loading historical data...

METEOR 2-11 DEB Visibility forecast

Observer location: undefined°, undefined°

Span
Click to sort rows by Start time (UTC) header in descending order
Start Az.
Max El. time (UTC)
Max El. Az.
Max El.
End time (UTC)
End Az.
8 mins2025-07-02 06:40:21.871Z136.758° SSE2025-07-02 06:44:21.871Z84.652° E24.694°2025-07-02 06:48:21.871Z35.376° NE
9 mins2025-07-02 08:23:21.871Z221.566° SW2025-07-02 08:27:21.871Z277.045° WNW31.791°2025-07-02 08:32:21.871Z348.707° N
6 mins2025-07-02 17:26:21.871Z38.071° NE2025-07-02 17:29:21.871Z75.142° E17.705°2025-07-02 17:32:21.871Z108.808° ESE
10 mins2025-07-02 19:08:21.871Z341.571° N2025-07-02 19:13:21.871Z250.169° W39.827°2025-07-02 19:18:21.871Z190.271° SSW
|